[Iaude] MPEC N01: 2024 MP1 [a=2.27,e=0.77,i=15.9,H=20.0]
    mpec at cfa.harvard.edu 
    mpec at cfa.harvard.edu
       
    Sun Jun 30 21:51:58 EDT 2024
    
    
  
M.P.E.C. 2024-N01                                  Issued 2024 July 1, 01:49 UT
     The Minor Planet Electronic Circulars contain information on unusual
         minor planets, routine data on comets and natural satellites,
         and occasional editorial announcements.  They are published
    on behalf of Division F of the International Astronomical Union by the
          Minor Planet Center, Smithsonian Astrophysical Observatory,
                          Cambridge, MA 02138, U.S.A.
			  
             Prepared using the Tamkin Foundation Computer Network
                              MPC at CFA.HARVARD.EDU
            URL https://www.minorplanetcenter.net/    ISSN 1523-6714
                                    2024 MP1                                    
Observations:
     K24M01P* C2024 06 28.57759821 45 00.005-07 17 07.17         21.04wXEN001F51
     K24M01P  C2024 06 28.58668821 44 57.773-07 17 06.13         21.02wXEN001F51
     K24M01P  C2024 06 28.59577021 44 55.527-07 17 05.07         21.05wXEN001F51
     K24M01P  C2024 06 28.60506821 44 53.233-07 17 04.07         21.06wXEN001F51
     K24M01P KB2024 06 28.96761 21 43 27.16 -07 16 30.1          20.0 RZEN001106
     K24M01P KB2024 06 28.97471 21 43 25.38 -07 16 29.0          19.9 RZEN001106
     K24M01P KB2024 06 28.98158 21 43 23.70 -07 16 27.6          19.4 RZEN001106
     K24M01P KB2024 06 28.98771 21 43 22.23 -07 16 27.5          20.0 RZEN001106
     K24M01P |C2024 06 29.37182021 41 49.430-07 15 28.20         20.6 GVEN001807
     K24M01P |C2024 06 29.37486021 41 48.660-07 15 28.10         20.6 GVEN001807
     K24M01P |C2024 06 29.37780021 41 47.970-07 15 27.90         20.5 GVEN001807
     K24M01P KB2024 07 01.02971421 35 14.03 -07 13 25.4          20.4 GXEN001I93
     K24M01P KB2024 07 01.04670621 35 09.91 -07 13 23.4          20.6 GXEN001I93
     K24M01P KB2024 07 01.05811721 35 07.15 -07 13 22.7          20.4 GXEN001I93
Observer details:
106 Crni Vrh.  Observer H. Mikuz.  0.60-m f/3.3 reflector + CMO.
807 Cerro Tololo Observatory, La Serena.  Observers T. Linder, R. Holmes.
    0.61-m f/6.8 Ritchey-Chretien + CCD.
F51 Pan-STARRS 1, Haleakala.  Observers J. Herman, T. Lowe, P. Minguez, A.
    Schultz, I. Smith.  Measurers K. Chambers, T. de Boer, J. Fairlamb, H.
    Gao, M. Huber, C.-C. Lin, E. Magnier, Y. Ramanjooloo, R. Wainscoat, R.
    Weryk.  1.8-m Ritchey-Chretien + CCD.
I93 St Pardon de Conques.  Observer F. Losse.  0.40-m f/3.7 reflector + CMO.
Orbital elements:
2024 MP1                                                 Earth MOID = 0.0538 AU
Epoch 2024 Mar. 31.0 TT = JDT 2460400.5                 MPC                     
M 356.21043              (2000.0)            P               Q                  
n   0.28816017     Peri.  250.89832     -0.96318179     -0.05334071             
a   2.2701092      Node   285.35466     +0.17140751     -0.87692444             
e   0.7729455      Incl.   15.85837     -0.20712389     -0.47765919             
P   3.42           H   20.04          G   0.15           U   9                  
Residuals in seconds of arc
240628 F51  0.1-  0.0     240628 106  0.0   0.0     240629 807  0.2+  0.2-
240628 F51  0.1+  0.0     240628 106  0.1-  0.7+    240701 I93  0.1-  0.5-
240628 F51  0.0   0.0     240628 106  0.2+  0.1+    240701 I93  0.0   0.3+
240628 F51  0.1-  0.0     240629 807  0.0   0.1+    240701 I93  0.1+  0.2+
240628 106  0.8+  0.4-    240629 807  0.3-  0.1-
Ephemeris:
2024 MP1                 a,e,i = 2.27, 0.77, 16                  q = 0.5154
Date    TT    R. A. (2000) Decl.     Delta      r    Elong.  Phase     V
2024 06 01    23 30 23.1 -09 41 55   0.4581  1.0480    81.3    73.0    21.0
...
2024 06 16    22 34 44.9 -08 02 06   0.4807  1.2490   107.7    50.8    20.8
...
2024 06 24    22 03 18.8 -07 28 27   0.5003  1.3517   122.3    39.5    20.8
...
2024 06 30    21 39 19.6 -07 14 36   0.5222  1.4265   133.3    31.2    20.7
2024 07 01    21 35 20.9 -07 13 14   0.5266  1.4388   135.2    29.9    20.7
2024 07 02    21 31 23.1 -07 12 09   0.5312  1.4511   137.0    28.6    20.7
...
2024 07 08    21 08 11.3 -07 10 52   0.5643  1.5234   147.6    21.0    20.7
...
2024 07 16    20 39 56.5 -07 21 03   0.6236  1.6170   160.2    12.3    20.8
...
2024 07 31    19 59 31.1 -08 02 27   0.7830  1.7841   165.6     8.2    21.3
                      (Last issue was M.P.E.C. 2024-M122)                       
A. U. Tomatic                (C) Copyright 2024 MPC           M.P.E.C. 2024-N01
    
    
More information about the Iaude
mailing list